Location: Willingham
(52.3167°N, 0.0667°E)
Time: 19:47:45
(UTC+00:00)

Okean 1 - Pass Details

Date: 19 May 2025
Orbit: 478 x 498 km, 82.5° (Epoch: 21 June)

Event Time Altitude Azimuth Distance (km) Brightness Sun altitude
Exits shadow 21:44:14 18° 168° (SSE) 1,249 4.6 -12.2°
Maximum altitude 21:46:43 53° 96° (E) 609 3.3 -12.4°
Drops below altitude 10° 21:50:19 10° 19° (NNE) 1,684 6.4 -12.7°
Sets 21:52:27 0° 15° (NNE) 2,567 7.5 -12.8°
